User: anonymous   Login
Location: Unspecified
(43.4680°N, 87.1740°E)
Time: 04:10:15
(UTC+00:00)
Language:

ALOS - Orbit

View from above orbital plane
View from above orbital plane
View from above satellite
View from above satellite

Ground track
Ground track

The orbit data is extracted from the following two-line orbital elements,

1 28931U 06002A   21169.51495528  .00000126  00000-0  33371-4 0  9999
2 28931  97.8863 144.2097 0001912  50.8393 309.2974 14.62847495821212
Epoch (UTC): 18 June 2021 12:21:32
Eccentricity: 0.0001912
inclination: 97.8863°
perigee height: 682 km
apogee height: 685 km
right ascension of ascending node: 144.2097°
argument of perigee: 50.8393°
revolutions per day: 14.62847495
mean anomaly at epoch: 309.2974°
orbit number at epoch: 82121

The dashed part of the orbit path shows where the satellite is in the earth's shadow,  

DLR